TimeCET,TemperatureF,Dew PointF,Humidity,Sea Level PressureIn,VisibilityMPH,Wind Direction,Wind SpeedMPH,Gust SpeedMPH,PrecipitationIn,Events,Conditions,WindDirDegrees,DateUTC
12:45 AM,33.8,30.2,87,29.98,-9999.0,SE,10.4,-,N/A,,Clear,140,2013-03-28 23:45:00
1:00 AM,34,30,81,29.99,6,SE,8.9,,,,Partly Cloudy,140,2013-03-29 00:00:00
1:45 AM,33.8,30.2,87,29.95,-9999.0,SE,10.4,-,N/A,,Clear,130,2013-03-29 00:45:00
2:45 AM,33.8,30.2,87,29.95,-9999.0,SE,12.7,-,N/A,,Clear,130,2013-03-29 01:45:00
3:45 AM,33.8,30.2,87,29.92,-9999.0,SE,15.0,-,N/A,,Clear,130,2013-03-29 02:45:00
4:45 AM,33.8,30.2,87,29.89,-9999.0,SE,12.7,-,N/A,,Clear,130,2013-03-29 03:45:00
5:15 AM,33.8,30.2,87,29.89,-9999.0,SE,11.5,-,N/A,,Clear,130,2013-03-29 04:15:00
5:45 AM,33.8,30.2,87,29.89,-9999.0,SE,12.7,-,N/A,,Clear,130,2013-03-29 04:45:00
6:15 AM,33.8,30.2,87,29.86,-9999.0,SE,13.8,-,N/A,,Clear,130,2013-03-29 05:15:00
6:45 AM,33.8,30.2,87,29.86,-9999.0,SE,13.8,-,N/A,,Clear,140,2013-03-29 05:45:00
7:00 AM,34,31,82,29.87,7,SE,13.4,,,,Partly Cloudy,140,2013-03-29 06:00:00
7:15 AM,33.8,32.0,93,29.86,-9999.0,SE,15.0,-,N/A,,Clear,140,2013-03-29 06:15:00
7:38 AM,35.6,32.0,87,29.86,-9999.0,SE,18.4,-,N/A,,Unknown,140,2013-03-29 06:38:00
7:39 AM,35.6,32.0,87,29.86,-9999.0,SE,18.4,-,N/A,,Clear,140,2013-03-29 06:39:00
7:45 AM,35.6,32.0,87,29.83,-9999.0,SE,19.6,-,N/A,,Clear,140,2013-03-29 06:45:00
8:15 AM,35.6,32.0,87,29.83,-9999.0,SE,23.0,-,N/A,,Clear,140,2013-03-29 07:15:00
8:45 AM,37.4,32.0,81,29.83,-9999.0,SE,21.9,-,N/A,,Clear,140,2013-03-29 07:45:00
9:15 AM,37.4,33.8,87,29.83,-9999.0,SE,20.7,-,N/A,,Clear,140,2013-03-29 08:15:00
9:45 AM,39.2,33.8,81,29.83,-9999.0,SE,21.9,-,N/A,,Clear,140,2013-03-29 08:45:00
10:15 AM,41.0,35.6,81,29.80,-9999.0,SSE,18.4,-,N/A,,Clear,150,2013-03-29 09:15:00
10:37 AM,41.0,35.6,81,29.83,6.2,SSE,20.7,-,N/A,Rain,Light Rain,150,2013-03-29 09:37:00
10:45 AM,41.0,35.6,81,29.80,6.2,SSE,24.2,36.8,N/A,Rain,Light Rain Showers,150,2013-03-29 09:45:00
11:15 AM,42.8,37.4,81,29.80,6.2,SSE,25.3,-,N/A,,Mostly Cloudy,150,2013-03-29 10:15:00
11:45 AM,42.8,37.4,81,29.80,-9999.0,SSE,23.0,34.5,N/A,,Clear,160,2013-03-29 10:45:00
12:15 PM,42.8,39.2,87,29.80,6.2,SSE,16.1,-,N/A,Rain,Light Rain,160,2013-03-29 11:15:00
12:45 PM,42.8,39.2,87,29.77,6.2,SSE,20.7,-,N/A,Rain,Light Rain,150,2013-03-29 11:45:00
1:00 PM,43,40,83,29.78,6,SSE,20.1,,,Rain,Light Rain,150,2013-03-29 12:00:00
1:15 PM,44.6,41.0,87,29.77,6.2,SSE,18.4,-,N/A,Rain,Light Rain,150,2013-03-29 12:15:00
1:45 PM,46.4,42.8,87,29.77,6.2,SSE,20.7,-,N/A,Rain,Light Rain,150,2013-03-29 12:45:00
2:15 PM,44.6,42.8,93,29.77,5.0,SSE,16.1,-,N/A,Rain,Rain,160,2013-03-29 13:15:00
2:45 PM,44.6,42.8,93,29.74,6.2,SE,19.6,-,N/A,,Mostly Cloudy,140,2013-03-29 13:45:00
3:15 PM,46.4,42.8,87,29.71,6.2,SSE,23.0,-,N/A,,Mostly Cloudy,150,2013-03-29 14:15:00
3:45 PM,46.4,42.8,87,29.71,6.2,SSE,21.9,-,N/A,,Mostly Cloudy,150,2013-03-29 14:45:00
4:15 PM,46.4,42.8,87,29.71,6.2,SSE,19.6,-,N/A,,Mostly Cloudy,150,2013-03-29 15:15:00
4:45 PM,46.4,42.8,87,29.74,6.2,SSW,13.8,-,N/A,Rain,Light Rain Showers,200,2013-03-29 15:45:00
5:15 PM,46.4,42.8,87,29.74,6.2,South,11.5,-,N/A,,Mostly Cloudy,190,2013-03-29 16:15:00
5:45 PM,44.6,41.0,87,29.77,6.2,South,12.7,-,N/A,,Mostly Cloudy,180,2013-03-29 16:45:00
6:15 PM,44.6,41.0,87,29.77,6.2,South,12.7,-,N/A,,Mostly Cloudy,190,2013-03-29 17:15:00
6:45 PM,42.8,41.0,93,29.77,6.2,South,12.7,-,N/A,,Mostly Cloudy,180,2013-03-29 17:45:00
7:00 PM,43,40,86,29.76,12,South,11.2,,,,Partly Cloudy,180,2013-03-29 18:00:00
7:15 PM,42.8,41.0,93,29.77,6.2,SSW,5.8,-,N/A,Rain,Light Rain,200,2013-03-29 18:15:00
7:45 PM,42.8,41.0,93,29.77,5.0,South,6.9,-,N/A,Rain,Rain,180,2013-03-29 18:45:00
8:15 PM,41.0,41.0,100,29.77,6.2,SSE,6.9,-,N/A,Rain,Light Rain,160,2013-03-29 19:15:00
8:45 PM,41.0,41.0,100,29.77,6.2,SSE,4.6,-,N/A,Rain,Light Rain,160,2013-03-29 19:45:00
9:45 PM,41.0,39.2,93,29.74,6.2,SSE,10.4,-,N/A,Rain,Light Rain,150,2013-03-29 20:45:00
10:45 PM,41.0,39.2,93,29.74,5.0,SSE,11.5,-,N/A,Rain,Light Rain,160,2013-03-29 21:45:00
11:45 PM,39.2,39.2,100,29.74,5.0,SSE,9.2,-,N/A,Rain,Light Rain,150,2013-03-29 22:45:00